Zurück zum Katalog

KUIPER-00626

AktivKommunikationLEO
NORAD 69781·PAYLOAD·🇺🇸 United States

Gestartet Jul 2, 2026 von Cape Canaveral Space Force Station

Loading…

Nächste Überflüge (nächste 24 Stunden)

TLE

AktuellSource: CelesTrak SupGP

Epoche: Sep 14, 2026, 13:26 UTC

1 69781C 26151U   26257.55979167  .00080927  00000+0  10594-1 0  2579
2 69781  51.8967 252.9429 0001057 107.0362 117.6276 14.79849635    11

Verfolge KUIPER-00626 in Echtzeit mit AllMySat

Download on the App Store